Torna al catalogo

CZ-6A DEB

AttivoSSO
NORAD 54923·DEBRIS·🇨🇳 China

Lanciato Nov 11, 2022 da Taiyuan Satellite Launch Center

Loading…

Prossimi Passaggi (prossime 24 ore)

TLE

AggiornatoSource: Space-Track

Epoca: Sep 14, 2026, 11:19 UTC

1 54923U 22151RL  26257.47202786  .00000111  00000-0  89187-4 0  9992
2 54923  98.8624 252.8062 0055367 103.7042 257.0300 14.08252035193741

Traccia CZ-6A DEB in tempo reale con AllMySat

Download on the App Store